• In Russia
  • List of Countries
  • For 7 days
  • Water Temperature
  • Satellite Maps
  • Weather Map
  • Weather Widgets
  • user-avatar
    Login

    Hourly Weather Harare

    Today, 25 February, Sunday

    Time Temperature Precipitation Wind Pressure Humidity
    00:00 +17°C° 0.1 mm 0 mps 636 mmHg 94%
    01:00 +16°C° 0.1 mm 0 mps 636 mmHg 94%
    02:00 +16°C° 0.1 mm 0 mps 636 mmHg 95%
    03:00 +18°C° 0 mm 1 mps 636 mmHg 95%
    04:00 +18°C° 0 mm 1 mps 636 mmHg 95%
    05:00 +18°C° 0 mm 1 mps 636 mmHg 95%
    06:00 +19°C° 0 mm 1 mps 636 mmHg 92%
    07:00 +21°C° 0 mm 1 mps 637 mmHg 88%
    08:00 +22°C° 0 mm 1 mps 637 mmHg 85%
    09:00 +24°C° 0 mm 2 mps 638 mmHg 76%
    10:00 +25°C° 0 mm 2 mps 638 mmHg 68%
    11:00 +27°C° 0 mm 2 mps 638 mmHg 60%
    12:00 +27°C° 0.3 mm 2 mps 638 mmHg 59%
    13:00 +28°C° 0.3 mm 2 mps 637 mmHg 59%
    14:00 +28°C° 0.3 mm 2 mps 637 mmHg 59%
    15:00 +27°C° 1.4 mm 2 mps 636 mmHg 65%
    16:00 +26°C° 1.4 mm 2 mps 636 mmHg 71%
    17:00 +25°C° 1.4 mm 2 mps 636 mmHg 78%
    18:00 +24°C° 0.5 mm 1 mps 635 mmHg 81%
    19:00 +22°C° 0.5 mm 1 mps 635 mmHg 85%
    20:00 +18°C° 0.5 mm 0 mps 635 mmHg 89%
    21:00 +18°C° 0.6 mm 0 mps 635 mmHg 89%
    22:00 +18°C° 0.6 mm 0 mps 635 mmHg 90%
    23:00 +17°C° 0.6 mm 0 mps 636 mmHg 90%

    Tomorrow, 26 February, Monday

    Time Temperature Precipitation Wind Pressure Humidity
    00:00 +19°C° 0.3 mm 1 mps 635 mmHg 91%
    01:00 +19°C° 0.3 mm 1 mps 635 mmHg 91%
    02:00 +19°C° 0.3 mm 1 mps 635 mmHg 91%
    03:00 +18°C° 0.2 mm 1 mps 635 mmHg 92%
    04:00 +18°C° 0.2 mm 1 mps 635 mmHg 92%
    05:00 +18°C° 0.2 mm 1 mps 635 mmHg 92%
    06:00 +18°C° 0.7 mm 2 mps 636 mmHg 91%
    07:00 +19°C° 0.7 mm 2 mps 637 mmHg 89%
    08:00 +20°C° 0.7 mm 3 mps 637 mmHg 88%
    09:00 +20°C° 0.6 mm 3 mps 638 mmHg 85%
    10:00 +21°C° 0.6 mm 3 mps 638 mmHg 83%
    11:00 +22°C° 0.6 mm 4 mps 638 mmHg 80%
    12:00 +22°C° 0.4 mm 4 mps 638 mmHg 77%
    13:00 +24°C° 0.4 mm 3 mps 637 mmHg 73%
    14:00 +25°C° 0.4 mm 3 mps 637 mmHg 70%
    15:00 +24°C° 0.9 mm 3 mps 637 mmHg 75%
    16:00 +22°C° 0.9 mm 3 mps 637 mmHg 80%
    17:00 +21°C° 0.9 mm 3 mps 636 mmHg 85%
    18:00 +20°C° 0.5 mm 3 mps 636 mmHg 88%
    19:00 +19°C° 0.5 mm 2 mps 637 mmHg 91%
    20:00 +18°C° 0.5 mm 2 mps 637 mmHg 94%
    21:00 +18°C° 0 mm 2 mps 637 mmHg 94%
    22:00 +18°C° 0 mm 2 mps 638 mmHg 95%
    23:00 +18°C° 0 mm 2 mps 638 mmHg 95%

    Day after tomorrow, 27 February, Tuesday

    Time Temperature Precipitation Wind Pressure Humidity
    00:00 +18°C° 0.1 mm 2 mps 638 mmHg 95%
    01:00 +18°C° 0.1 mm 2 mps 637 mmHg 96%
    02:00 +17°C° 0.1 mm 2 mps 637 mmHg 96%
    03:00 +17°C° 0.5 mm 2 mps 637 mmHg 96%
    04:00 +17°C° 0.5 mm 2 mps 637 mmHg 96%
    05:00 +17°C° 0.5 mm 2 mps 637 mmHg 96%
    06:00 +18°C° 0.7 mm 2 mps 637 mmHg 95%
    07:00 +18°C° 0.7 mm 2 mps 638 mmHg 94%
    08:00 +18°C° 0.7 mm 2 mps 638 mmHg 93%
    09:00 +18°C° 0.5 mm 2 mps 638 mmHg 92%
    10:00 +19°C° 0.5 mm 2 mps 638 mmHg 92%
    11:00 +19°C° 0.5 mm 2 mps 638 mmHg 91%
    12:00 +20°C° 0.2 mm 3 mps 638 mmHg 86%
    13:00 +21°C° 0.2 mm 3 mps 638 mmHg 81%
    14:00 +22°C° 0.2 mm 3 mps 638 mmHg 76%
    15:00 +22°C° 0.2 mm 3 mps 637 mmHg 76%
    16:00 +23°C° 0.2 mm 2 mps 637 mmHg 76%
    17:00 +23°C° 0.2 mm 2 mps 637 mmHg 76%
    18:00 +21°C° 0.3 mm 2 mps 637 mmHg 82%
    19:00 +19°C° 0.3 mm 2 mps 637 mmHg 87%
    20:00 +18°C° 0.3 mm 2 mps 637 mmHg 93%
    21:00 +18°C° 0.3 mm 2 mps 637 mmHg 94%
    22:00 +17°C° 0.3 mm 2 mps 637 mmHg 95%
    23:00 +17°C° 0.3 mm 2 mps 638 mmHg 96%

    28 February, Wednesday

    Time Temperature Precipitation Wind Pressure Humidity
    00:00 +17°C° 0.2 mm 2 mps 637 mmHg 97%
    01:00 +17°C° 0.2 mm 2 mps 637 mmHg 97%
    02:00 +17°C° 0.2 mm 2 mps 636 mmHg 97%
    03:00 +17°C° 0 mm 2 mps 637 mmHg 97%
    04:00 +17°C° 0 mm 2 mps 637 mmHg 97%
    05:00 +17°C° 0 mm 2 mps 637 mmHg 97%
    06:00 +18°C° 0 mm 2 mps 637 mmHg 95%
    07:00 +18°C° 0 mm 2 mps 638 mmHg 92%
    08:00 +19°C° 0 mm 3 mps 639 mmHg 90%
    09:00 +20°C° 0.2 mm 3 mps 639 mmHg 86%
    10:00 +21°C° 0.2 mm 3 mps 639 mmHg 82%
    11:00 +23°C° 0.2 mm 2 mps 639 mmHg 78%
    12:00 +24°C° 0.9 mm 2 mps 638 mmHg 77%
    13:00 +24°C° 0.9 mm 2 mps 637 mmHg 77%
    14:00 +24°C° 0.9 mm 2 mps 637 mmHg 77%
    15:00 +24°C° 0.9 mm 2 mps 636 mmHg 78%
    16:00 +24°C° 0.9 mm 2 mps 636 mmHg 80%
    17:00 +24°C° 0.9 mm 2 mps 636 mmHg 82%
    18:00 +22°C° 1.6 mm 1 mps 636 mmHg 85%
    19:00 +21°C° 1.6 mm 1 mps 636 mmHg 89%
    20:00 +20°C° 1.6 mm 1 mps 636 mmHg 92%
    21:00 +20°C° 0.8 mm 1 mps 637 mmHg 93%
    22:00 +19°C° 0.8 mm 1 mps 637 mmHg 93%
    23:00 +19°C° 0.8 mm 1 mps 637 mmHg 94%

    1 March, Thursday

    Time Temperature Precipitation Wind Pressure Humidity
    00:00 +19°C° 0.5 mm 1 mps 637 mmHg 94%
    01:00 +19°C° 0.5 mm 1 mps 636 mmHg 95%
    02:00 +19°C° 0.5 mm 1 mps 636 mmHg 96%
    03:00 +19°C° 0.4 mm 1 mps 636 mmHg 96%
    04:00 +18°C° 0.4 mm 1 mps 636 mmHg 96%
    05:00 +18°C° 0.4 mm 1 mps 636 mmHg 96%
    06:00 +19°C° 1 mm 1 mps 636 mmHg 95%
    07:00 +18°C° 1 mm 2 mps 637 mmHg 95%
    08:00 +18°C° 1 mm 2 mps 637 mmHg 95%
    09:00 +19°C° 1.2 mm 2 mps 637 mmHg 93%
    10:00 +19°C° 1.2 mm 2 mps 637 mmHg 91%
    11:00 +20°C° 1.2 mm 2 mps 637 mmHg 90%
    12:00 +21°C° 0.5 mm 2 mps 637 mmHg 84%
    13:00 +23°C° 0.5 mm 2 mps 636 mmHg 79%
    14:00 +25°C° 0.5 mm 2 mps 636 mmHg 73%
    15:00 +24°C° 1.6 mm 2 mps 636 mmHg 77%
    16:00 +24°C° 1.6 mm 2 mps 636 mmHg 81%
    17:00 +23°C° 1.6 mm 1 mps 635 mmHg 86%
    18:00 +22°C° 1.5 mm 1 mps 635 mmHg 88%
    19:00 +20°C° 1.5 mm 2 mps 635 mmHg 91%
    20:00 +19°C° 1.5 mm 2 mps 636 mmHg 93%
    21:00 +18°C° 0.7 mm 2 mps 636 mmHg 94%
    22:00 +18°C° 0.7 mm 2 mps 636 mmHg 94%
    23:00 +18°C° 0.7 mm 2 mps 636 mmHg 95%

    2 March, Friday

    Time Temperature Precipitation Wind Pressure Humidity
    00:00 +18°C° 0.2 mm 2 mps 636 mmHg 96%
    01:00 +18°C° 0.2 mm 2 mps 635 mmHg 97%
    02:00 +17°C° 0.2 mm 2 mps 635 mmHg 97%
    03:00 +17°C° 0.1 mm 2 mps 635 mmHg 97%
    04:00 +17°C° 0.1 mm 2 mps 635 mmHg 97%
    05:00 +17°C° 0.1 mm 2 mps 635 mmHg 97%
    06:00 +18°C° 0 mm 2 mps 636 mmHg 95%
    07:00 +18°C° 0 mm 3 mps 636 mmHg 93%
    08:00 +19°C° 0 mm 3 mps 637 mmHg 91%
    09:00 +20°C° 0.2 mm 3 mps 637 mmHg 86%
    10:00 +21°C° 0.2 mm 4 mps 637 mmHg 82%
    11:00 +22°C° 0.2 mm 4 mps 637 mmHg 77%
    12:00 +22°C° 0.7 mm 3 mps 637 mmHg 78%
    13:00 +22°C° 0.7 mm 3 mps 636 mmHg 78%
    14:00 +22°C° 0.7 mm 3 mps 636 mmHg 79%
    15:00 +23°C° 0.7 mm 2 mps 635 mmHg 81%
    16:00 +23°C° 0.7 mm 2 mps 635 mmHg 83%
    17:00 +21°C° 0.7 mm 2 mps 635 mmHg 85%
    18:00 +21°C° 0.5 mm 1 mps 635 mmHg 89%
    19:00 +20°C° 0.5 mm 1 mps 635 mmHg 92%
    20:00 +19°C° 0.5 mm 1 mps 635 mmHg 95%
    21:00 +19°C° 0.2 mm 1 mps 635 mmHg 95%
    22:00 +18°C° 0.2 mm 1 mps 636 mmHg 96%
    23:00 +17°C° 0.2 mm 2 mps 636 mmHg 96%
    Show more